FW8535 Weather Reports


Display with metric or nautical units.
time (UTC)temp
F
wind
direction
speed
MPH
gust
MPH
rain 1hr
in
rain 24hr
in
rain mn
in
humidity
%
barometer
mb
20220808201522 94 237 7.0 13.0 0.00 0.00 0.00 21 934.6
20220808201027 93 215 6.0 16.0 0.00 0.00 0.00 21 934.5
20220808200521 94 224 10.0 16.0 0.00 0.00 0.00 21 934.6
20220808200121 93 196 7.0 20.0 0.00 0.00 0.00 20 934.7
20220808195519 93 207 7.0 20.0 0.00 0.00 0.00 20 934.7
20220808195018 93 184 7.0 17.0 0.00 0.00 0.00 21 934.6
20220808194518 93 201 7.0 14.0 0.00 0.00 0.00 22 934.7
20220808194017 92 212 7.0 17.0 0.00 0.00 0.00 22 934.8
20220808193517 92 219 11.0 18.0 0.00 0.00 0.00 21 934.8
20220808193017 92 218 11.0 16.0 0.00 0.00 0.00 21 934.8
20220808192516 92 259 10.0 19.0 0.00 0.00 0.00 20 934.9
20220808192016 92 226 10.0 19.0 0.00 0.00 0.00 23 934.9
20220808191516 92 223 11.0 17.0 0.00 0.00 0.00 23 935.0
20220808191018 92 217 8.0 18.0 0.00 0.00 0.00 23 935.1
20220808190514 91 223 10.0 18.0 0.00 0.00 0.00 23 935.2
20220808190113 91 197 9.0 16.0 0.00 0.00 0.00 25 935.3
20220808185513 91 200 11.0 16.0 0.00 0.00 0.00 24 935.4
20220808185014 90 211 10.0 18.0 0.00 0.00 0.00 25 935.4
20220808184512 90 186 13.0 19.0 0.00 0.00 0.00 24 935.3
20220808184009 90 205 10.0 19.0 0.00 0.00 0.00 23 935.3
20220808183511 90 217 11.0 18.0 0.00 0.00 0.00 24 935.3
20220808183007 90 198 11.0 18.0 0.00 0.00 0.00 23 935.6
20220808182508 90 220 10.0 19.0 0.00 0.00 0.00 26 935.6
20220808182009 90 212 10.0 18.0 0.00 0.00 0.00 24 935.6
20220808181505 89 213 11.0 18.0 0.00 0.00 0.00 26 935.7
20220808181003 89 225 9.0 19.0 0.00 0.00 0.00 27 935.8
20220808180502 88 196 10.0 18.0 0.00 0.00 0.00 28 935.9
20220808180104 87 183 9.0 15.0 0.00 0.00 0.00 33 935.9
20220808175058 87 213 8.0 19.0 0.00 0.00 0.00 34 936.0
20220808174615 87 217 8.0 19.0 0.00 0.00 0.00 34 936.3
20220808174056 86 190 9.0 16.0 0.00 0.00 0.00 36 936.3
20220808173554 86 223 11.0 17.0 0.00 0.00 0.00 35 936.3
20220808173053 86 217 9.0 17.0 0.00 0.00 0.00 36 936.4
20220808172556 85 202 9.0 13.0 0.00 0.00 0.00 38 936.3
20220808172054 85 200 8.0 13.0 0.00 0.00 0.00 38 936.5
20220808171551 84 198 9.0 13.0 0.00 0.00 0.00 40 936.5
20220808171049 84 234 7.0 12.0 0.00 0.00 0.00 42 936.6
20220808170549 83 198 6.0 13.0 0.00 0.00 0.00 43 936.6
20220808170046 82 188 7.0 10.0 0.00 0.00 0.00 45 936.6
20220808165046 81 176 7.0 11.0 0.00 0.00 0.00 45 936.8
20220808164545 81 219 7.0 11.0 0.00 0.00 0.00 45 936.9
20220808164044 80 197 8.0 11.0 0.00 0.00 0.00 47 936.8
20220808163543 80 182 7.0 11.0 0.00 0.00 0.00 47 936.8
20220808163046 79 193 6.0 10.0 0.00 0.00 0.00 48 936.9
20220808162542 79 198 6.0 10.0 0.00 0.00 0.00 49 937.0
20220808162039 79 209 7.0 13.0 0.00 0.00 0.00 49 937.0
20220808161538 78 190 6.0 10.0 0.00 0.00 0.00 50 937.0
20220808161040 78 215 7.0 14.0 0.00 0.00 0.00 50 937.1
20220808160536 77 209 8.0 14.0 0.00 0.00 0.00 50 937.2
20220808160136 77 207 6.0 11.0 0.00 0.00 0.00 52 937.2
20220808155033 76 210 6.0 14.0 0.00 0.00 0.00 53 937.3
20220808154533 76 225 8.0 14.0 0.00 0.00 0.00 52 937.5
20220808154035 76 190 7.0 12.0 0.00 0.00 0.00 53 937.4
20220808153530 75 211 6.0 12.0 0.00 0.00 0.00 54 937.5
20220808153030 75 194 6.0 13.0 0.00 0.00 0.00 55 937.6
20220808152529 74 204 7.0 10.0 0.00 0.00 0.00 57 937.5
20220808152028 73 217 6.0 10.0 0.00 0.00 0.00 57 937.6
20220808151525 73 201 6.0 11.0 0.00 0.00 0.00 57 937.7
20220808151024 72 200 6.0 11.0 0.00 0.00 0.00 58 937.7
20220808150526 72 211 6.0 10.0 0.00 0.00 0.00 59 937.8
20220808150022 71 217 6.0 10.0 0.00 0.00 0.00 61 937.7
20220808145020 71 210 7.0 11.0 0.00 0.00 0.00 62 937.7
20220808144519 70 203 8.0 11.0 0.00 0.00 0.00 62 937.7
20220808144019 70 217 7.0 11.0 0.00 0.00 0.00 63 937.7
20220808143517 70 221 7.0 12.0 0.00 0.00 0.00 64 937.7
20220808143016 69 242 7.0 12.0 0.00 0.00 0.00 65 937.7
20220808142519 68 225 8.0 12.0 0.00 0.00 0.00 65 937.7
20220808142013 68 222 8.0 15.0 0.00 0.00 0.00 67 937.7
20220808141512 67 225 9.0 15.0 0.00 0.00 0.00 67 937.7
20220808141010 67 217 10.0 14.0 0.00 0.00 0.00 68 937.7
20220808140509 67 217 9.0 15.0 0.00 0.00 0.00 69 937.7
20220808140014 66 218 9.0 15.0 0.00 0.00 0.00 70 937.9
20220808135008 65 224 8.0 15.0 0.00 0.00 0.00 74 937.8
20220808134505 65 232 9.0 15.0 0.00 0.00 0.00 75 938.0
20220808134004 64 223 9.0 14.0 0.00 0.00 0.00 76 937.9
20220808133504 63 221 9.0 12.0 0.00 0.00 0.00 78 937.9
20220808133001 63 221 9.0 12.0 0.00 0.00 0.00 80 937.9
20220808132600 62 225 8.0 12.0 0.00 0.00 0.00 82 938.1
20220808132058 61 218 9.0 12.0 0.00 0.00 0.00 82 938.0
20220808131559 61 214 6.0 10.0 0.00 0.00 0.00 84 937.9
20220808131100 60 213 6.0 8.0 0.00 0.00 0.00 85 937.9
20220808130554 60 211 6.0 8.0 0.00 0.00 0.00 86 938.0
20220808130056 59 213 5.0 8.0 0.00 0.00 0.00 86 937.8
20220808125052 58 208 5.0 7.0 0.00 0.00 0.00 87 937.9
20220808124551 58 206 4.0 6.0 0.00 0.00 0.00 88 937.8
20220808124050 58 206 4.0 7.0 0.00 0.00 0.00 87 937.9
20220808123550 58 206 5.0 8.0 0.00 0.00 0.00 87 938.0
20220808123050 58 209 5.0 9.0 0.00 0.00 0.00 87 937.9
20220808122548 57 211 6.0 9.0 0.00 0.00 0.00 88 937.8
20220808122047 57 209 5.0 8.0 0.00 0.00 0.00 88 937.9
20220808121547 57 209 5.0 8.0 0.00 0.00 0.00 88 937.8
20220808121046 57 207 5.0 7.0 0.00 0.00 0.00 88 937.7
20220808120549 57 207 5.0 7.0 0.00 0.00 0.00 88 937.8
20220808120046 56 210 5.0 7.0 0.00 0.00 0.00 88 937.7
20220808115046 57 213 5.0 8.0 0.00 0.00 0.00 88 937.7
20220808114545 57 213 6.0 8.0 0.00 0.00 0.00 89 937.8
20220808114049 56 209 5.0 8.0 0.00 0.00 0.00 89 937.9
20220808113544 56 203 4.0 6.0 0.00 0.00 0.00 88 937.8
20220808113044 56 205 4.0 7.0 0.00 0.00 0.00 88 937.8
20220808112546 56 206 5.0 7.0 0.00 0.00 0.00 88 937.9
20220808112043 57 209 5.0 8.0 0.00 0.00 0.00 88 937.9
20220808111542 57 211 6.0 8.0 0.00 0.00 0.00 88 938.0
20220808111046 56 211 5.0 8.0 0.00 0.00 0.00 88 937.9
20220808110541 56 212 5.0 7.0 0.00 0.00 0.00 88 938.0
20220808110041 56 215 5.0 8.0 0.00 0.00 0.00 88 937.9
20220808105041 57 215 5.0 7.0 0.00 0.00 0.00 88 938.0
20220808104539 56 219 5.0 8.0 0.00 0.00 0.00 89 938.0
20220808104043 56 217 5.0 7.0 0.00 0.00 0.00 90 938.0
20220808103542 55 217 5.0 7.0 0.00 0.00 0.00 91 938.1
20220808103043 55 206 4.0 6.0 0.00 0.00 0.00 90 938.0
20220808102539 55 205 4.0 6.0 0.00 0.00 0.00 91 937.9
20220808102038 54 205 4.0 6.0 0.00 0.00 0.00 90 938.0
20220808101538 54 205 4.0 5.0 0.00 0.00 0.00 90 937.9
20220808101037 54 205 4.0 5.0 0.00 0.00 0.00 90 938.0
20220808100538 54 205 3.0 5.0 0.00 0.00 0.00 90 938.0
20220808100037 54 205 3.0 5.0 0.00 0.00 0.00 90 938.1
20220808095040 54 205 3.0 4.0 0.00 0.00 0.00 90 938.1
20220808094555 54 205 2.0 4.0 0.00 0.00 0.00 91 938.0
20220808094040 54 205 2.0 4.0 0.00 0.00 0.00 91 938.0
20220808093541 54 205 3.0 4.0 0.00 0.00 0.00 91 938.1
20220808093038 53 205 2.0 3.0 0.00 0.00 0.00 90 938.1
20220808092538 53 205 2.0 3.0 0.00 0.00 0.00 89 938.1
20220808092036 53 205 2.0 3.0 0.00 0.00 0.00 89 938.1
20220808091538 53 205 2.0 3.0 0.00 0.00 0.00 89 938.3
20220808091034 54 205 2.0 3.0 0.00 0.00 0.00 88 938.1
20220808090534 54 205 2.0 4.0 0.00 0.00 0.00 88 938.2
20220808090056 55 205 2.0 4.0 0.00 0.00 0.00 87 938.3
20220808085031 56 205 3.0 4.0 0.00 0.00 0.00 87 938.4
20220808084532 56 205 3.0 5.0 0.00 0.00 0.00 87 938.3
20220808084030 56 205 3.0 5.0 0.00 0.00 0.00 88 938.3
20220808083530 56 205 3.0 5.0 0.00 0.00 0.00 88 938.4
20220808083033 56 205 3.0 5.0 0.00 0.00 0.00 88 938.5
20220808082530 56 205 4.0 6.0 0.00 0.00 0.00 88 938.6
20220808082030 56 205 4.0 6.0 0.00 0.00 0.00 89 938.5
20220808081530 56 184 4.0 5.0 0.00 0.00 0.00 89 938.5
20220808081029 55 183 3.0 4.0 0.00 0.00 0.00 89 938.5
20220808080529 55 183 3.0 4.0 0.00 0.00 0.00 89 938.6
20220808080029 55 183 3.0 4.0 0.00 0.00 0.00 88 938.5
20220808075028 55 184 2.0 4.0 0.00 0.00 0.00 86 938.8
20220808074531 56 184 2.0 4.0 0.00 0.00 0.00 86 938.7
20220808074032 56 183 2.0 4.0 0.00 0.00 0.00 87 938.8
20220808073528 56 184 2.0 4.0 0.00 0.00 0.00 86 938.9
20220808073029 57 183 2.0 4.0 0.00 0.00 0.00 86 938.7
20220808072529 57 183 2.0 4.0 0.00 0.00 0.00 87 938.8
20220808072027 57 183 2.0 4.0 0.00 0.00 0.00 87 938.9
20220808071528 57 183 3.0 4.0 0.00 0.00 0.00 88 938.9
20220808071027 56 183 3.0 4.0 0.00 0.00 0.00 89 938.9
20220808070528 55 183 3.0 4.0 0.00 0.00 0.00 89 938.8
20220808070027 55 183 3.0 4.0 0.00 0.00 0.00 88 939.0
20220808065026 55 183 2.0 4.0 0.00 0.00 0.00 87 939.1
20220808064537 55 183 3.0 4.0 0.00 0.00 0.00 87 939.2
20220808064027 55 184 2.0 3.0 0.00 0.00 0.00 86 939.2
20220808063526 56 184 2.0 3.0 0.00 0.00 0.00 86 939.2
20220808063027 56 184 2.0 4.0 0.00 0.00 0.00 87 939.3
20220808062529 56 184 2.0 4.0 0.00 0.00 0.00 88 939.2
20220808062026 55 184 2.0 4.0 0.00 0.00 0.00 87 939.3
20220808061529 55 184 1.0 3.0 0.00 0.00 0.00 87 939.2
20220808061026 55 184 1.0 3.0 0.00 0.00 0.00 87 939.3
20220808060525 55 184 1.0 3.0 0.00 0.00 0.00 86 939.4
20220808060026 55 184 1.0 3.0 0.00 0.00 0.00 86 939.2
20220808055025 55 184 1.0 3.0 0.00 0.00 0.00 86 939.1
20220808054526 55 184 2.0 3.0 0.00 0.00 0.00 86 939.1
20220808054029 56 184 1.0 3.0 0.00 0.00 0.00 85 939.2
20220808053528 56 183 1.0 3.0 0.00 0.00 0.00 84 939.3
20220808053025 57 184 1.0 3.0 0.00 0.00 0.00 84 939.3
20220808052526 57 183 1.0 3.0 0.00 0.00 0.00 84 939.2
20220808052027 57 184 1.0 2.0 0.00 0.00 0.00 84 939.2
20220808051525 57 184 1.0 3.0 0.00 0.00 0.00 82 939.2
20220808051027 58 184 2.0 3.0 0.00 0.00 0.00 82 939.1
20220808050525 59 184 1.0 3.0 0.00 0.00 0.00 81 939.3
20220808050025 59 184 1.0 3.0 0.00 0.00 0.00 82 939.2
20220808045025 59 183 2.0 4.0 0.00 0.00 0.00 81 939.2
20220808044524 60 183 2.0 3.0 0.00 0.00 0.00 80 939.2
20220808044023 60 183 1.0 4.0 0.00 0.00 0.00 81 939.1
20220808043523 60 184 2.0 4.0 0.00 0.00 0.00 81 939.2
20220808043024 60 183 2.0 4.0 0.00 0.00 0.00 80 939.1
20220808042525 61 184 2.0 4.0 0.00 0.00 0.00 80 939.2
20220808042022 61 184 2.0 4.0 0.00 0.00 0.00 80 939.1
20220808041523 61 184 2.0 4.0 0.00 0.00 0.00 80 939.2
20220808041022 60 183 2.0 4.0 0.00 0.00 0.00 81 939.2
20220808040525 60 184 3.0 4.0 0.00 0.00 0.00 80 939.1
20220808040022 60 184 1.0 3.0 0.00 0.00 0.00 80 939.2
20220808035023 60 184 1.0 2.0 0.00 0.00 0.00 79 939.2
20220808034528 61 183 1.0 3.0 0.00 0.00 0.00 78 939.0
20220808034023 61 183 2.0 3.0 0.00 0.00 0.00 78 939.0
20220808033523 61 183 1.0 3.0 0.00 0.00 0.00 78 939.1
20220808033022 62 184 2.0 3.0 0.00 0.00 0.00 77 939.0
20220808032522 62 183 1.0 3.0 0.00 0.00 0.00 77 939.0
20220808032023 62 184 1.0 3.0 0.00 0.00 0.00 77 939.0
20220808031523 63 184 1.0 3.0 0.00 0.00 0.00 76 939.1
20220808031024 63 184 1.0 3.0 0.00 0.00 0.00 75 938.8
20220808030522 64 183 2.0 3.0 0.00 0.00 0.00 75 938.9
20220808030028 65 184 1.0 3.0 0.00 0.00 0.00 73 938.8
20220808025022 66 184 2.0 5.0 0.00 0.00 0.00 72 938.7
20220808024522 67 184 3.0 6.0 0.00 0.00 0.00 71 938.7
20220808024022 67 183 3.0 6.0 0.00 0.00 0.00 70 938.7
20220808023521 67 180 2.0 6.0 0.00 0.00 0.00 70 938.5
20220808023023 67 178 3.0 6.0 0.00 0.00 0.00 69 938.5
20220808022521 68 182 1.0 5.0 0.00 0.00 0.00 69 938.6
20220808022022 68 183 3.0 5.0 0.00 0.00 0.00 68 938.5
20220808021521 69 184 2.0 4.0 0.00 0.00 0.00 67 938.6
20220808021021 69 184 1.0 5.0 0.00 0.00 0.00 66 938.5
20220808020523 70 185 2.0 5.0 0.00 0.00 0.00 65 938.6
20220808020021 71 186 2.0 5.0 0.00 0.00 0.00 64 938.5
20220808015020 72 186 2.0 4.0 0.00 0.00 0.00 61 938.5
20220808014526 73 186 2.0 6.0 0.00 0.00 0.00 60 938.5
20220808014019 73 186 3.0 6.0 0.00 0.00 0.00 59 938.6
20220808013521 74 187 3.0 6.0 0.00 0.00 0.00 58 938.5
20220808013020 74 182 4.0 6.0 0.00 0.00 0.00 57 938.4
20220808012519 74 182 3.0 6.0 0.00 0.00 0.00 57 938.4
20220808012019 74 177 3.0 7.0 0.00 0.00 0.00 57 938.5
20220808011539 75 179 5.0 9.0 0.00 0.00 0.00 56 938.5
20220808011017 75 178 4.0 9.0 0.00 0.00 0.00 56 938.5
20220808010517 75 180 5.0 10.0 0.00 0.00 0.00 56 938.5
20220808010017 75 182 6.0 10.0 0.00 0.00 0.00 55 938.5
20220808005016 75 178 6.0 11.0 0.00 0.00 0.00 55 938.4
20220808004520 75 189 6.0 11.0 0.00 0.00 0.00 55 938.5
20220808004017 76 190 8.0 11.0 0.00 0.00 0.00 54 938.5
20220808003515 76 199 6.0 10.0 0.00 0.00 0.00 54 938.5
20220808003018 76 205 6.0 10.0 0.00 0.00 0.00 53 938.5
20220808002514 76 213 8.0 10.0 0.00 0.00 0.00 53 938.6
20220808002018 76 210 5.0 10.0 0.00 0.00 0.00 54 938.6
20220808001517 76 190 7.0 10.0 0.00 0.00 0.00 53 938.5
20220808001014 76 197 6.0 12.0 0.00 0.00 0.00 53 938.7
20220808000517 76 194 7.0 11.0 0.00 0.00 0.00 52 938.7
20220808000014 77 196 6.0 11.0 0.00 0.00 0.00 52 938.7
20220807235015 77 260 7.0 12.0 0.00 0.00 0.00 50 938.8
20220807234520 77 234 6.0 10.0 0.00 0.00 0.00 50 938.8
20220807234018 77 202 4.0 8.0 0.00 0.00 0.00 51 938.8
20220807233516 77 220 2.0 10.0 0.00 0.00 0.00 51 938.9
20220807233014 77 213 7.0 10.0 0.00 0.00 0.00 51 938.9
20220807232513 77 219 8.0 11.0 0.00 0.00 0.00 50 939.0
20220807232015 77 210 4.0 11.0 0.00 0.00 0.00 51 938.9
20220807231512 77 234 4.0 11.0 0.00 0.00 0.00 50 938.8
20220807231012 77 228 7.0 10.0 0.00 0.00 0.00 50 938.9
20220807230514 77 230 4.0 10.0 0.00 0.00 0.00 50 939.0
20220807230009 76 230 4.0 9.0 0.00 0.00 0.00 51 939.0
20220807225009 76 241 4.0 8.0 0.00 0.00 0.00 51 939.0
20220807224506 76 204 4.0 8.0 0.00 0.00 0.00 51 939.0
20220807224006 76 177 2.0 7.0 0.00 0.00 0.00 51 939.1
20220807223509 76 233 1.0 10.0 0.00 0.00 0.00 52 939.1
20220807223006 76 193 5.0 10.0 0.00 0.00 0.00 52 939.1
20220807222505 75 185 4.0 12.0 0.00 0.00 0.00 53 939.1
20220807222002 74 259 5.0 12.0 0.00 0.00 0.00 54 939.3
20220807221503 73 184 4.0 9.0 0.00 0.00 0.00 56 939.2
20220807221003 74 238 5.0 10.0 0.00 0.00 0.00 55 939.3
20220807220503 74 188 4.0 10.0 0.00 0.00 0.00 55 939.3
20220807220001 74 158 5.0 10.0 0.00 0.00 0.00 55 939.4
20220807215102 73 292 1.0 7.0 0.00 0.00 0.00 56 939.3
20220807214601 73 273 2.0 9.0 0.00 0.00 0.00 56 939.4
20220807214101 72 221 5.0 9.0 0.00 0.00 0.00 58 939.5
20220807213558 72 168 3.0 10.0 0.00 0.00 0.00 59 939.5
20220807213105 72 147 5.0 10.0 0.00 0.00 0.00 59 939.6
20220807212557 72 152 4.0 10.0 0.00 0.00 0.00 59 939.6
20220807212058 71 159 5.0 9.0 0.00 0.00 0.00 60 939.6
20220807211558 71 197 4.0 12.0 0.00 0.00 0.00 59 939.6
20220807211056 71 195 3.0 10.0 0.00 0.00 0.00 60 939.6
20220807210554 71 202 3.0 10.0 0.00 0.00 0.00 59 939.7
20220807210056 71 205 6.0 11.0 0.00 0.00 0.00 60 939.7
20220807205053 71 148 4.0 9.0 0.00 0.00 0.00 61 939.8
20220807204553 70 234 4.0 9.0 0.00 0.00 0.00 60 939.9
20220807204054 70 157 3.0 10.0 0.00 0.00 0.00 61 939.9
20220807203551 69 182 4.0 10.0 0.00 0.00 0.00 62 940.0
20220807203050 69 190 2.0 11.0 0.00 0.00 0.00 61 939.9
20220807202549 69 242 4.0 11.0 0.00 0.00 0.00 63 940.0
20220807202053 69 225 7.0 11.0 0.00 0.00 0.00 63 940.1